#timestamp,LO_Frequency,Hit,StdDev 
1645347615.3,286047000.9,N
1645347635.2,286047001.6,N
1645347655.0,286047004.3,N
1645347655.9,286047004.3,N
1645347675.7,286046999.7,N
1645347695.6,286047001.7,N
1645347715.4,286047002.7,N
1645347735.3,286047001.4,N
1645347755.1,286047002.9,N
1645347756.0,286047002.9,N
1645347775.8,286047005.3,N
1645347795.7,286047007.6,Y
1645347815.5,286046998.6,P
1645347835.3,286046995.0,N
1645347855.2,286046995.7,N
1645347875.0,286046993.8,N
1645347875.9,286046993.8,N
1645347895.8,286046997.2,N
1645347915.6,286046998.6,N
1645347935.4,286046998.2,N
1645347955.3,286047002.5,N
1645347975.1,286047002.8,N
1645347995.8,286047000.3,N
1645348015.7,286047001.7,N
1645348035.5,286047000.5,N
1645348055.4,286047000.5,N
1645348075.2,286047001.0,N
1645348095.0,286046998.1,N
1645348095.9,286046998.1,N
1645348115.8,286046998.3,N
1645348135.6,286047001.0,N
1645348155.4,286047002.6,N
1645348175.3,286047000.7,N
1645348195.1,286046996.7,N
1645348215.9,286047001.1,N
1645348235.7,286046996.8,N
1645348255.5,286047000.7,N
1645348275.4,286046998.4,N
1645348295.2,286046998.1,N
1645348315.1,286046998.0,N
1645348316.0,286046998.0,N
1645348335.8,286046998.3,N
1645348355.6,286046999.2,N
1645348375.5,286047000.8,N
1645348395.3,286047004.0,N
1645348415.1,286047000.0,N
1645348435.9,286047004.1,N
1645348455.7,286047002.5,N
1645348475.6,286047000.3,N
1645348495.4,286047000.7,N
1645348515.2,286047004.4,N
1645348535.1,286047000.1,N
1645348536.0,286047000.1,N
1645348555.8,286047000.1,N
1645348575.6,286047000.6,N
1645348595.5,286046998.2,N
1645348615.3,286046997.4,N
1645348635.2,286046993.4,Y
1645348655.9,286046996.1,P
1645348675.7,286046996.8,N
1645348695.6,286046995.1,N
1645348715.4,286046996.6,N
1645348735.2,286046998.4,N
1645348755.1,286047000.7,N
1645348756.0,286047000.7,N
1645348775.8,286047000.4,N
1645348795.7,286047000.8,N
1645348815.5,286046998.9,N
1645348835.3,286047002.1,N
1645348855.2,286047003.8,N
1645348875.0,286047001.3,N
1645348875.9,286047001.3,N
1645348895.8,286047001.7,N
1645348915.6,286046999.3,N
1645348935.4,286046996.9,N
1645348955.3,286046998.2,N
1645348975.1,286047001.2,N
1645348995.8,286046996.6,N
1645349015.7,286047000.4,N
1645349035.5,286047001.7,N
1645349055.4,286047000.4,N
1645349075.2,286047000.7,N
1645349095.0,286047002.2,N
1645349095.9,286047002.2,N
1645349115.8,286047001.3,N
1645349135.6,286047005.6,N
1645349155.4,286047001.5,N
1645349175.3,286047004.4,N
1645349195.1,286047001.8,N
1645349215.9,286047002.7,N
1645349235.7,286047001.0,N
1645349255.5,286046999.2,N
1645349275.4,286047000.0,N
1645349295.2,286047004.2,N
1645349315.0,286047001.7,N
1645349315.9,286047001.7,N
1645349335.8,286047001.7,N
1645349355.6,286046999.8,N
1645349375.5,286046998.2,N
1645349395.3,286047002.2,N
1645349415.1,286047000.7,N
1645349435.9,286046999.5,N
1645349455.7,286046996.7,N
1645349475.5,286046996.6,N
1645349495.4,286047000.7,N
1645349515.2,286047000.0,N
1645349535.1,286046996.6,N
1645349536.0,286046996.6,N
1645349555.8,286046997.1,N
1645349575.6,286046997.7,N
1645349595.5,286046996.5,N
1645349615.3,286047001.0,N
1645349635.1,286046998.3,N
1645349655.9,286047002.1,N
1645349675.7,286046998.7,N
1645349695.6,286046999.1,N
1645349715.4,286046999.2,N
1645349735.2,286046995.1,N
1645349755.1,286046996.7,N
1645349756.0,286046996.7,N
1645349775.8,286046998.7,N
1645349795.6,286046997.2,N
1645349815.5,286046998.4,N
1645349835.3,286047002.0,N
1645349855.2,286047001.6,N
1645349875.9,286047004.4,N
1645349895.7,286047004.1,N
1645349915.6,286047001.7,N
1645349935.4,286047003.3,N
1645349955.2,286047002.0,N
1645349975.1,286047004.4,N
1645349976.0,286047004.4,N
1645349995.8,286047004.2,N
1645350015.7,286047001.7,N
1645350035.5,286047001.5,N
1645350055.3,286047002.1,N
1645350075.2,286047001.5,N
1645350095.0,286047001.6,N
1645350095.9,286047001.6,N
1645350115.7,286047004.1,N
1645350135.6,286047004.5,N
1645350155.4,286047001.6,N
1645350175.3,286047003.3,N
1645350195.1,286047006.5,N
1645350215.8,286047008.7,Y
1645350235.7,286047007.4,P
1645350255.5,286047005.9,N
1645350275.4,286047005.8,N
1645350295.2,286046999.7,N
1645350315.0,286047001.0,N
1645350315.9,286047001.0,N
1645350335.8,286046997.4,N
1645350355.6,286046996.7,N
1645350375.4,286046999.4,N
1645350395.3,286046998.1,N
1645350415.1,286047001.1,N
1645350435.9,286047002.8,N
1645350455.7,286047002.5,N
1645350475.5,286047003.6,N
1645350495.4,286047005.9,N
1645350515.2,286047001.3,N
1645350535.0,286047005.0,N
1645350535.9,286047005.0,N
1645350555.8,286047003.6,N
1645350575.6,286047002.7,N
1645350595.5,286046999.8,N
1645350615.3,286046999.0,N
1645350635.1,286046999.4,N
1645350655.9,286046998.8,N
1645350675.7,286046998.7,N
1645350695.5,286046999.0,N
1645350715.4,286047000.0,N
1645350735.2,286046998.1,N
1645350755.1,286046998.4,N
1645350756.0,286046998.4,N
1645350775.8,286046998.7,N
1645350795.6,286047000.7,N
1645350815.5,286046998.3,N
1645350835.3,286046998.8,N
1645350855.1,286046999.1,N
1645350875.9,286046996.9,N
1645350895.7,286046998.1,N
1645350915.6,286047002.6,N
1645350935.4,286046999.3,N
1645350955.2,286047000.1,N
1645350975.1,286047000.4,N
1645350976.0,286047000.4,N
1645350995.8,286047000.9,N
1645351015.6,286046998.7,N
1645351035.5,286046997.8,N
1645351055.3,286046997.9,N
1645351075.2,286046996.8,N
1645351095.9,286047001.1,N
1645351115.7,286046996.6,N
1645351135.6,286046996.9,N
1645351155.4,286046999.4,N
1645351175.2,286046994.9,Y
1645351195.1,286046995.4,P
1645351196.0,286046995.4,N
